Year,Month,Day,Hour,Minute,Value (Times are PST for temperature in C)
2019,05,31,00,00,18.80
2019,05,31,00,01,18.80
2019,05,31,00,02,18.80
2019,05,31,00,03,18.80
2019,05,31,00,04,18.80
2019,05,31,00,05,18.80
2019,05,31,00,06,18.80
2019,05,31,00,07,18.70
2019,05,31,00,08,18.70
2019,05,31,00,09,18.70
2019,05,31,00,10,18.60
2019,05,31,00,11,18.60
2019,05,31,00,12,18.60
2019,05,31,00,13,18.50
2019,05,31,00,14,18.50
2019,05,31,00,15,18.40
2019,05,31,00,16,18.40
2019,05,31,00,17,18.30
2019,05,31,00,18,18.30
2019,05,31,00,19,18.30
2019,05,31,00,20,18.20
2019,05,31,00,21,18.20
2019,05,31,00,22,18.20
2019,05,31,00,23,18.20
2019,05,31,00,24,18.20
2019,05,31,00,25,18.10
2019,05,31,00,26,18.10
2019,05,31,00,27,18.10
2019,05,31,00,28,18.00
2019,05,31,00,29,18.00
2019,05,31,00,30,18.00
2019,05,31,00,31,18.00
2019,05,31,00,32,17.90
2019,05,31,00,33,18.00
2019,05,31,00,34,18.00
2019,05,31,00,35,18.00
2019,05,31,00,36,18.00
2019,05,31,00,37,18.00
2019,05,31,00,38,18.00
2019,05,31,00,39,18.00
2019,05,31,00,40,18.00
2019,05,31,00,41,18.00
2019,05,31,00,42,18.10
2019,05,31,00,43,18.00
2019,05,31,00,44,18.00
2019,05,31,00,45,18.10
2019,05,31,00,46,18.00
2019,05,31,00,47,18.00
2019,05,31,00,48,18.00
2019,05,31,00,49,18.00
2019,05,31,00,50,18.00
2019,05,31,00,51,17.90
2019,05,31,00,52,17.90
2019,05,31,00,53,17.90
2019,05,31,00,54,17.90
2019,05,31,00,55,17.90
2019,05,31,00,56,17.80
2019,05,31,00,57,17.80
2019,05,31,00,58,17.80
2019,05,31,00,59,17.80
2019,05,31,01,00,17.80
2019,05,31,01,01,17.80
2019,05,31,01,02,17.80
2019,05,31,01,03,17.80
2019,05,31,01,04,17.80
2019,05,31,01,05,17.70
2019,05,31,01,06,17.70
2019,05,31,01,07,17.60
2019,05,31,01,08,17.50
2019,05,31,01,09,17.40
2019,05,31,01,10,17.30
2019,05,31,01,11,17.30
2019,05,31,01,12,17.20
2019,05,31,01,13,17.20
2019,05,31,01,14,17.20
2019,05,31,01,15,17.10
2019,05,31,01,16,17.10
2019,05,31,01,17,17.10
2019,05,31,01,18,17.10
2019,05,31,01,19,17.00
2019,05,31,01,20,17.00
2019,05,31,01,21,16.90
2019,05,31,01,22,16.90
2019,05,31,01,23,16.80
2019,05,31,01,24,16.80
2019,05,31,01,25,16.80
2019,05,31,01,26,16.70
2019,05,31,01,27,16.70
2019,05,31,01,28,16.60
2019,05,31,01,29,16.50
2019,05,31,01,30,16.50
2019,05,31,01,31,16.40
2019,05,31,01,32,16.40
2019,05,31,01,33,16.30
2019,05,31,01,34,16.30
2019,05,31,01,35,16.20
2019,05,31,01,36,16.20
2019,05,31,01,37,16.20
2019,05,31,01,38,16.10
2019,05,31,01,39,16.10
2019,05,31,01,40,16.00
2019,05,31,01,41,16.00
2019,05,31,01,42,15.90
2019,05,31,01,43,15.90
2019,05,31,01,44,15.90
2019,05,31,01,45,15.90
2019,05,31,01,46,15.90
2019,05,31,01,47,15.90
2019,05,31,01,48,15.90
2019,05,31,01,49,15.90
2019,05,31,01,50,15.90
2019,05,31,01,51,15.90
2019,05,31,01,52,15.90
2019,05,31,01,53,15.90
2019,05,31,01,54,15.90
2019,05,31,01,55,15.90
2019,05,31,01,56,15.90
2019,05,31,01,57,15.90
2019,05,31,01,58,15.90
2019,05,31,01,59,15.80
2019,05,31,02,00,15.80
2019,05,31,02,01,15.80
2019,05,31,02,02,15.80
2019,05,31,02,03,15.80
2019,05,31,02,04,15.70
2019,05,31,02,05,15.70
2019,05,31,02,06,15.70
2019,05,31,02,07,15.70
2019,05,31,02,08,15.60
2019,05,31,02,09,15.60
2019,05,31,02,10,15.60
2019,05,31,02,11,15.60
2019,05,31,02,12,15.60
2019,05,31,02,13,15.50
2019,05,31,02,14,15.50
2019,05,31,02,15,15.40
2019,05,31,02,16,15.40
2019,05,31,02,17,15.40
2019,05,31,02,18,15.30
2019,05,31,02,19,15.30
2019,05,31,02,20,15.30
2019,05,31,02,21,15.30
2019,05,31,02,22,15.20
2019,05,31,02,23,15.20
2019,05,31,02,24,15.20
2019,05,31,02,25,15.20
2019,05,31,02,26,15.10
2019,05,31,02,27,15.10
2019,05,31,02,28,15.00
2019,05,31,02,29,15.00
2019,05,31,02,30,15.00
2019,05,31,02,31,15.00
2019,05,31,02,32,15.00
2019,05,31,02,33,15.00
2019,05,31,02,34,15.00
2019,05,31,02,35,15.00
2019,05,31,02,36,15.00
2019,05,31,02,37,15.00
2019,05,31,02,38,15.00
2019,05,31,02,39,15.00
2019,05,31,02,40,15.00
2019,05,31,02,41,15.10
2019,05,31,02,42,15.10
2019,05,31,02,43,15.10
2019,05,31,02,44,15.10
2019,05,31,02,45,15.20
2019,05,31,02,46,15.20
2019,05,31,02,47,15.20
2019,05,31,02,48,15.20
2019,05,31,02,49,15.20
2019,05,31,02,50,15.20
2019,05,31,02,51,15.20
2019,05,31,02,52,15.20
2019,05,31,02,53,15.20
2019,05,31,02,54,15.20
2019,05,31,02,55,15.20
2019,05,31,02,56,15.20
2019,05,31,02,57,15.20
2019,05,31,02,58,15.20
2019,05,31,02,59,15.20
2019,05,31,03,00,15.20
2019,05,31,03,01,15.20
2019,05,31,03,02,15.20
2019,05,31,03,03,15.20
2019,05,31,03,04,15.20
2019,05,31,03,05,15.20
2019,05,31,03,06,15.30
2019,05,31,03,07,15.30
2019,05,31,03,08,15.30
2019,05,31,03,09,15.30
2019,05,31,03,10,15.30
2019,05,31,03,11,15.30
2019,05,31,03,12,15.30
2019,05,31,03,13,15.30
2019,05,31,03,14,15.30
2019,05,31,03,15,15.30
2019,05,31,03,16,15.30
2019,05,31,03,17,15.30
2019,05,31,03,18,15.30
2019,05,31,03,19,15.30
2019,05,31,03,20,15.30
2019,05,31,03,21,15.30
2019,05,31,03,22,15.30
2019,05,31,03,23,15.30
2019,05,31,03,24,15.30
2019,05,31,03,25,15.30
2019,05,31,03,26,15.20
2019,05,31,03,27,15.20
2019,05,31,03,28,15.20
2019,05,31,03,29,15.20
2019,05,31,03,30,15.20
2019,05,31,03,31,15.20
2019,05,31,03,32,15.20
2019,05,31,03,33,15.20
2019,05,31,03,34,15.10
2019,05,31,03,35,15.10
2019,05,31,03,36,15.10
2019,05,31,03,37,15.00
2019,05,31,03,38,15.00
2019,05,31,03,39,15.00
2019,05,31,03,40,15.00
2019,05,31,03,41,15.00
2019,05,31,03,42,15.00
2019,05,31,03,43,15.00
2019,05,31,03,44,15.00
2019,05,31,03,45,15.00
2019,05,31,03,46,15.00
2019,05,31,03,47,15.00
2019,05,31,03,48,15.00
2019,05,31,03,49,15.00
2019,05,31,03,50,15.00
2019,05,31,03,51,15.00
2019,05,31,03,52,14.90
2019,05,31,03,53,14.90
2019,05,31,03,54,14.90
2019,05,31,03,55,14.90
2019,05,31,03,56,14.90
2019,05,31,03,57,14.90
2019,05,31,03,58,15.00
2019,05,31,03,59,15.00
2019,05,31,04,00,15.00
2019,05,31,04,01,15.00
2019,05,31,04,02,15.00
2019,05,31,04,03,15.00
2019,05,31,04,04,15.00
2019,05,31,04,05,15.00
2019,05,31,04,06,15.00
2019,05,31,04,07,15.00
2019,05,31,04,08,15.00
2019,05,31,04,09,15.00
2019,05,31,04,10,15.00
2019,05,31,04,11,15.00
2019,05,31,04,12,15.00
2019,05,31,04,13,15.00
2019,05,31,04,14,15.00
2019,05,31,04,15,15.00
2019,05,31,04,16,15.00
2019,05,31,04,17,15.00
2019,05,31,04,18,14.90
2019,05,31,04,19,14.90
2019,05,31,04,20,14.90
2019,05,31,04,21,14.90
2019,05,31,04,22,14.90
2019,05,31,04,23,14.90
2019,05,31,04,24,14.90
2019,05,31,04,25,14.90
2019,05,31,04,26,14.80
2019,05,31,04,27,14.90
2019,05,31,04,28,14.90
2019,05,31,04,29,14.90
2019,05,31,04,30,14.90
2019,05,31,04,31,15.00
2019,05,31,04,32,15.00
2019,05,31,04,33,15.00
2019,05,31,04,34,15.00
2019,05,31,04,35,15.00
2019,05,31,04,36,15.00
2019,05,31,04,37,15.00
2019,05,31,04,38,15.00
2019,05,31,04,39,15.00
2019,05,31,04,40,15.00
2019,05,31,04,41,15.00
2019,05,31,04,42,15.00
2019,05,31,04,43,15.00
2019,05,31,04,44,15.00
2019,05,31,04,45,15.00
2019,05,31,04,46,15.10
2019,05,31,04,47,15.10
2019,05,31,04,48,15.10
2019,05,31,04,49,15.10
2019,05,31,04,50,15.10
2019,05,31,04,51,15.10
2019,05,31,04,52,15.10
2019,05,31,04,53,15.10
2019,05,31,04,54,15.10
2019,05,31,04,55,15.10
2019,05,31,04,56,15.10
2019,05,31,04,57,15.10
2019,05,31,04,58,15.20
2019,05,31,04,59,15.20
2019,05,31,05,00,15.20
2019,05,31,05,01,15.20
2019,05,31,05,02,15.30
2019,05,31,05,03,15.30
2019,05,31,05,04,15.30
2019,05,31,05,05,15.30
2019,05,31,05,06,15.30
2019,05,31,05,07,15.30
2019,05,31,05,08,15.30
2019,05,31,05,09,15.30
2019,05,31,05,10,15.30
2019,05,31,05,11,15.30
2019,05,31,05,12,15.20
2019,05,31,05,13,15.20
2019,05,31,05,14,15.20
2019,05,31,05,15,15.20
2019,05,31,05,16,15.10
2019,05,31,05,17,15.10
2019,05,31,05,18,15.00
2019,05,31,05,19,15.00
2019,05,31,05,20,15.00
2019,05,31,05,21,15.00
2019,05,31,05,22,15.00
2019,05,31,05,23,15.00
2019,05,31,05,24,15.00
2019,05,31,05,25,15.00
2019,05,31,05,26,15.00
2019,05,31,05,27,15.00
2019,05,31,05,28,15.00
2019,05,31,05,29,15.00
2019,05,31,05,30,15.00
2019,05,31,05,31,14.90
2019,05,31,05,32,14.90
2019,05,31,05,33,14.90
2019,05,31,05,34,14.80
2019,05,31,05,35,14.80
2019,05,31,05,36,14.80
2019,05,31,05,37,14.80
2019,05,31,05,38,14.80
2019,05,31,05,39,14.80
2019,05,31,05,40,14.80
2019,05,31,05,41,14.80
2019,05,31,05,42,14.80
2019,05,31,05,43,14.80
2019,05,31,05,44,14.90
2019,05,31,05,45,14.90
2019,05,31,05,46,14.90
2019,05,31,05,47,14.90
2019,05,31,05,48,14.90
2019,05,31,05,49,15.00
2019,05,31,05,50,15.00
2019,05,31,05,51,15.00
2019,05,31,05,52,15.00
2019,05,31,05,53,15.00
2019,05,31,05,54,15.00
2019,05,31,05,55,15.00
2019,05,31,05,56,15.00
2019,05,31,05,57,15.10
2019,05,31,05,58,15.10
2019,05,31,05,59,15.10
2019,05,31,06,00,15.20
2019,05,31,06,01,15.20
2019,05,31,06,02,15.30
2019,05,31,06,03,15.30
2019,05,31,06,04,15.30
2019,05,31,06,05,15.30
2019,05,31,06,06,15.40
2019,05,31,06,07,15.40
2019,05,31,06,08,15.40
2019,05,31,06,09,15.50
2019,05,31,06,10,15.50
2019,05,31,06,11,15.60
2019,05,31,06,12,15.60
2019,05,31,06,13,15.60
2019,05,31,06,14,15.70
2019,05,31,06,15,15.70
2019,05,31,06,16,15.80
2019,05,31,06,17,15.80
2019,05,31,06,18,15.80
2019,05,31,06,19,15.80
2019,05,31,06,20,15.80
2019,05,31,06,21,15.80
2019,05,31,06,22,15.70
2019,05,31,06,23,15.70
2019,05,31,06,24,15.70
2019,05,31,06,25,15.70
2019,05,31,06,26,15.70
2019,05,31,06,27,15.70
2019,05,31,06,28,15.70
2019,05,31,06,29,15.70
2019,05,31,06,30,15.80
2019,05,31,06,31,15.90
2019,05,31,06,32,16.00
2019,05,31,06,33,16.00
2019,05,31,06,34,16.10
2019,05,31,06,35,16.10
2019,05,31,06,36,16.20
2019,05,31,06,37,16.20
2019,05,31,06,38,16.30
2019,05,31,06,39,16.30
2019,05,31,06,40,16.30
2019,05,31,06,41,16.30
2019,05,31,06,42,16.20
2019,05,31,06,43,16.20
2019,05,31,06,44,16.20
2019,05,31,06,45,16.20
2019,05,31,06,46,16.20
2019,05,31,06,47,16.20
2019,05,31,06,48,16.20
2019,05,31,06,49,16.20
2019,05,31,06,50,16.20
2019,05,31,06,51,16.20
2019,05,31,06,52,16.20
2019,05,31,06,53,16.20
2019,05,31,06,54,16.20
2019,05,31,06,55,16.20
2019,05,31,06,56,16.20
2019,05,31,06,57,16.20
2019,05,31,06,58,16.20
2019,05,31,06,59,16.20
2019,05,31,07,00,16.30
2019,05,31,07,01,16.30
2019,05,31,07,02,16.40
2019,05,31,07,03,16.40
2019,05,31,07,04,16.50
2019,05,31,07,05,16.50
2019,05,31,07,06,16.60
2019,05,31,07,07,16.60
2019,05,31,07,08,16.60
2019,05,31,07,09,16.60
2019,05,31,07,10,16.60
2019,05,31,07,11,16.70
2019,05,31,07,12,16.70
2019,05,31,07,13,16.70
2019,05,31,07,14,16.70
2019,05,31,07,15,16.70
2019,05,31,07,16,16.60
2019,05,31,07,17,16.60
2019,05,31,07,18,16.60
2019,05,31,07,19,16.60
2019,05,31,07,20,16.60
2019,05,31,07,21,16.50
2019,05,31,07,22,16.50
2019,05,31,07,23,16.40
2019,05,31,07,24,16.40
2019,05,31,07,25,16.40
2019,05,31,07,26,16.40
2019,05,31,07,27,16.40
2019,05,31,07,28,16.40
2019,05,31,07,29,16.40
2019,05,31,07,30,16.40
2019,05,31,07,31,16.40
2019,05,31,07,32,16.40
2019,05,31,07,33,16.30
2019,05,31,07,34,16.30
2019,05,31,07,35,16.30
2019,05,31,07,36,16.30
2019,05,31,07,37,16.30
2019,05,31,07,38,16.40
2019,05,31,07,39,16.40
2019,05,31,07,40,16.40
2019,05,31,07,41,16.40
2019,05,31,07,42,16.40
2019,05,31,07,43,16.50
2019,05,31,07,44,16.50
2019,05,31,07,45,16.50
2019,05,31,07,46,16.60
2019,05,31,07,47,16.60
2019,05,31,07,48,16.70
2019,05,31,07,49,16.70
2019,05,31,07,50,16.70
2019,05,31,07,51,16.70
2019,05,31,07,52,16.70
2019,05,31,07,53,16.70
2019,05,31,07,54,16.70
2019,05,31,07,55,16.80
2019,05,31,07,56,16.80
2019,05,31,07,57,16.80
2019,05,31,07,58,16.80
2019,05,31,07,59,16.90
2019,05,31,08,00,16.90
2019,05,31,08,01,16.90
2019,05,31,08,02,17.00
2019,05,31,08,03,16.90
2019,05,31,08,04,17.00
2019,05,31,08,05,17.00
2019,05,31,08,06,17.00
2019,05,31,08,07,16.90
2019,05,31,08,08,17.00
2019,05,31,08,09,17.00
2019,05,31,08,10,17.00
2019,05,31,08,11,17.10
2019,05,31,08,12,17.10
2019,05,31,08,13,17.20
2019,05,31,08,14,17.20
2019,05,31,08,15,17.20
2019,05,31,08,16,17.20
2019,05,31,08,17,17.20
2019,05,31,08,18,17.20
2019,05,31,08,19,17.30
2019,05,31,08,20,17.30
2019,05,31,08,21,17.40
2019,05,31,08,22,17.40
2019,05,31,08,23,17.40
2019,05,31,08,24,17.40
2019,05,31,08,25,17.40
2019,05,31,08,26,17.40
2019,05,31,08,27,17.40
2019,05,31,08,28,17.50
2019,05,31,08,29,17.60
2019,05,31,08,30,17.60
2019,05,31,08,31,17.60
2019,05,31,08,32,17.60
2019,05,31,08,33,17.70
2019,05,31,08,34,17.70
2019,05,31,08,35,17.70
2019,05,31,08,36,17.70
2019,05,31,08,37,17.70
2019,05,31,08,38,17.60
2019,05,31,08,39,17.60
2019,05,31,08,40,17.60
2019,05,31,08,41,17.60
2019,05,31,08,42,17.60
2019,05,31,08,43,17.60
2019,05,31,08,44,17.70
2019,05,31,08,45,17.70
2019,05,31,08,46,17.70
2019,05,31,08,47,17.70
2019,05,31,08,48,17.70
2019,05,31,08,49,17.80
2019,05,31,08,50,17.80
2019,05,31,08,51,17.80
2019,05,31,08,52,17.90
2019,05,31,08,53,17.90
2019,05,31,08,54,17.90
2019,05,31,08,55,17.80
2019,05,31,08,56,17.90
2019,05,31,08,57,17.90
2019,05,31,08,58,18.00
2019,05,31,08,59,18.10
2019,05,31,09,00,18.20
2019,05,31,09,01,18.20
2019,05,31,09,02,18.10
2019,05,31,09,03,18.10
2019,05,31,09,04,18.00
2019,05,31,09,05,18.00
2019,05,31,09,06,18.00
2019,05,31,09,07,18.00
2019,05,31,09,08,18.10
2019,05,31,09,09,18.10
2019,05,31,09,10,18.10
2019,05,31,09,11,18.20
2019,05,31,09,12,18.20
2019,05,31,09,13,18.10
2019,05,31,09,14,18.10
2019,05,31,09,15,18.10
2019,05,31,09,16,18.10
2019,05,31,09,17,18.20
2019,05,31,09,18,18.20
2019,05,31,09,19,18.20
2019,05,31,09,20,18.20
2019,05,31,09,21,18.20
2019,05,31,09,22,18.20
2019,05,31,09,23,18.20
2019,05,31,09,24,18.20
2019,05,31,09,25,18.20
2019,05,31,09,26,18.20
2019,05,31,09,27,18.30
2019,05,31,09,28,18.30
2019,05,31,09,29,18.30
2019,05,31,09,30,18.40
2019,05,31,09,31,18.40
2019,05,31,09,32,18.40
2019,05,31,09,33,18.40
2019,05,31,09,34,18.50
2019,05,31,09,35,18.50
2019,05,31,09,36,18.60
2019,05,31,09,37,18.70
2019,05,31,09,38,18.80
2019,05,31,09,39,18.90
2019,05,31,09,40,19.00
2019,05,31,09,41,19.00
2019,05,31,09,42,19.10
2019,05,31,09,43,19.20
2019,05,31,09,44,19.20
2019,05,31,09,45,19.10
2019,05,31,09,46,19.00
2019,05,31,09,47,19.00
2019,05,31,09,48,18.90
2019,05,31,09,49,18.90
2019,05,31,09,50,18.90
2019,05,31,09,51,18.80
2019,05,31,09,52,18.80
2019,05,31,09,53,18.70
2019,05,31,09,54,18.70
2019,05,31,09,55,18.60
2019,05,31,09,56,18.50
2019,05,31,09,57,18.50
2019,05,31,09,58,18.40
2019,05,31,09,59,18.30
2019,05,31,10,00,18.20
2019,05,31,10,01,18.20
2019,05,31,10,02,18.20
2019,05,31,10,03,18.10
2019,05,31,10,04,18.10
2019,05,31,10,05,18.10
2019,05,31,10,06,18.20
2019,05,31,10,07,18.30
2019,05,31,10,08,18.40
2019,05,31,10,09,18.50
2019,05,31,10,10,18.70
2019,05,31,10,11,18.80
2019,05,31,10,12,18.90
2019,05,31,10,13,19.00
2019,05,31,10,14,19.10
2019,05,31,10,15,19.10
2019,05,31,10,16,19.10
2019,05,31,10,17,19.10
2019,05,31,10,18,19.00
2019,05,31,10,19,19.00
2019,05,31,10,20,19.10
2019,05,31,10,21,19.20
2019,05,31,10,22,19.30
2019,05,31,10,23,19.40
2019,05,31,10,24,19.40
2019,05,31,10,25,19.40
2019,05,31,10,26,19.30
2019,05,31,10,27,19.20
2019,05,31,10,28,19.30
2019,05,31,10,29,19.30
2019,05,31,10,30,19.20
2019,05,31,10,31,19.20
2019,05,31,10,32,19.20
2019,05,31,10,33,19.30
2019,05,31,10,34,19.30
2019,05,31,10,35,19.30
2019,05,31,10,36,19.40
2019,05,31,10,37,19.40
2019,05,31,10,38,19.40
2019,05,31,10,39,19.40
2019,05,31,10,40,19.40
2019,05,31,10,41,19.40
2019,05,31,10,42,19.40
2019,05,31,10,43,19.40
2019,05,31,10,44,19.40
2019,05,31,10,45,19.40
2019,05,31,10,46,19.50
2019,05,31,10,47,19.50
2019,05,31,10,48,19.40
2019,05,31,10,49,19.50
2019,05,31,10,50,19.50
2019,05,31,10,51,19.50
2019,05,31,10,52,19.40
2019,05,31,10,53,19.50
2019,05,31,10,54,19.50
2019,05,31,10,55,19.60
2019,05,31,10,56,19.70
2019,05,31,10,57,19.80
2019,05,31,10,58,19.90
2019,05,31,10,59,19.90
2019,05,31,11,00,19.90
2019,05,31,11,01,19.90
2019,05,31,11,02,19.90
2019,05,31,11,03,19.90
2019,05,31,11,04,19.90
2019,05,31,11,05,20.00
2019,05,31,11,06,20.00
2019,05,31,11,07,19.90
2019,05,31,11,08,19.80
2019,05,31,11,09,19.80
2019,05,31,11,10,19.80
2019,05,31,11,11,19.80
2019,05,31,11,12,19.70
2019,05,31,11,13,19.70
2019,05,31,11,14,19.70
2019,05,31,11,15,19.70
2019,05,31,11,16,19.70
2019,05,31,11,17,19.80
2019,05,31,11,18,19.80
2019,05,31,11,19,19.80
2019,05,31,11,20,19.70
2019,05,31,11,21,19.70
2019,05,31,11,22,19.70
2019,05,31,11,23,19.70
2019,05,31,11,24,19.70
2019,05,31,11,25,19.70
2019,05,31,11,26,19.80
2019,05,31,11,27,19.90
2019,05,31,11,28,20.00
2019,05,31,11,29,20.10
2019,05,31,11,30,20.20
2019,05,31,11,31,20.20
2019,05,31,11,32,20.20
2019,05,31,11,33,20.10
2019,05,31,11,34,20.00
2019,05,31,11,35,20.00
2019,05,31,11,36,20.00
2019,05,31,11,37,20.00
2019,05,31,11,38,19.90
2019,05,31,11,39,19.90
2019,05,31,11,40,19.80
2019,05,31,11,41,19.80
2019,05,31,11,42,19.70
2019,05,31,11,43,19.70
2019,05,31,11,44,19.70
2019,05,31,11,45,19.70
2019,05,31,11,46,19.70
2019,05,31,11,47,19.80
2019,05,31,11,48,19.80
2019,05,31,11,49,19.90
2019,05,31,11,50,20.00
2019,05,31,11,51,20.10
2019,05,31,11,52,20.10
2019,05,31,11,53,20.20
2019,05,31,11,54,20.30
2019,05,31,11,55,20.30
2019,05,31,11,56,20.20
2019,05,31,11,57,20.20
2019,05,31,11,58,20.10
2019,05,31,11,59,20.20
2019,05,31,12,00,20.30
2019,05,31,12,01,20.40
2019,05,31,12,02,20.50
2019,05,31,12,03,20.60
2019,05,31,12,04,20.60
2019,05,31,12,05,20.70
2019,05,31,12,06,20.70
2019,05,31,12,07,20.80
2019,05,31,12,08,20.80
2019,05,31,12,09,20.80
2019,05,31,12,10,20.80
2019,05,31,12,11,20.80
2019,05,31,12,12,20.70
2019,05,31,12,13,20.70
2019,05,31,12,14,20.70
2019,05,31,12,15,20.70
2019,05,31,12,16,20.70
2019,05,31,12,17,20.70
2019,05,31,12,18,20.70
2019,05,31,12,19,20.70
2019,05,31,12,20,20.70
2019,05,31,12,21,20.60
2019,05,31,12,22,20.60
2019,05,31,12,23,20.60
2019,05,31,12,24,20.60
2019,05,31,12,25,20.70
2019,05,31,12,26,20.70
2019,05,31,12,27,20.60
2019,05,31,12,28,20.50
2019,05,31,12,29,20.40
2019,05,31,12,30,20.40
2019,05,31,12,31,20.40
2019,05,31,12,32,20.40
2019,05,31,12,33,20.40
2019,05,31,12,34,20.40
2019,05,31,12,35,20.40
2019,05,31,12,36,20.30
2019,05,31,12,37,20.20
2019,05,31,12,38,20.20
2019,05,31,12,39,20.20
2019,05,31,12,40,20.20
2019,05,31,12,41,20.30
2019,05,31,12,42,20.50
2019,05,31,12,43,20.60
2019,05,31,12,44,20.70
2019,05,31,12,45,20.80
2019,05,31,12,46,20.90
2019,05,31,12,47,21.00
2019,05,31,12,48,21.10
2019,05,31,12,49,21.20
2019,05,31,12,50,21.20
2019,05,31,12,51,21.10
2019,05,31,12,52,21.10
2019,05,31,12,53,21.20
2019,05,31,12,54,21.30
2019,05,31,12,55,21.30
2019,05,31,12,56,21.40
2019,05,31,12,57,21.50
2019,05,31,12,58,21.60
2019,05,31,12,59,21.50
2019,05,31,13,00,21.60
2019,05,31,13,01,21.70
2019,05,31,13,02,21.70
2019,05,31,13,03,21.70
2019,05,31,13,04,21.70
2019,05,31,13,05,21.70
2019,05,31,13,06,21.60
2019,05,31,13,07,21.60
2019,05,31,13,08,21.50
2019,05,31,13,09,21.50
2019,05,31,13,10,21.50
2019,05,31,13,11,21.60
2019,05,31,13,12,21.60
2019,05,31,13,13,21.70
2019,05,31,13,14,21.70
2019,05,31,13,15,21.70
2019,05,31,13,16,21.70
2019,05,31,13,17,21.70
2019,05,31,13,18,21.80
2019,05,31,13,19,21.70
2019,05,31,13,20,21.70
2019,05,31,13,21,21.80
2019,05,31,13,22,21.80
2019,05,31,13,23,21.70
2019,05,31,13,24,21.70
2019,05,31,13,25,21.70
2019,05,31,13,26,21.70
2019,05,31,13,27,21.70
2019,05,31,13,28,21.80
2019,05,31,13,29,21.80
2019,05,31,13,30,21.80
2019,05,31,13,31,21.90
2019,05,31,13,32,22.00
2019,05,31,13,33,22.10
2019,05,31,13,34,22.20
2019,05,31,13,35,22.30
2019,05,31,13,36,22.40
2019,05,31,13,37,22.40
2019,05,31,13,38,22.40
2019,05,31,13,39,22.30
2019,05,31,13,40,22.40
2019,05,31,13,41,22.30
2019,05,31,13,42,22.20
2019,05,31,13,43,22.10
2019,05,31,13,44,22.20
2019,05,31,13,45,22.20
2019,05,31,13,46,22.20
2019,05,31,13,47,22.20
2019,05,31,13,48,22.20
2019,05,31,13,49,22.20
2019,05,31,13,50,22.20
2019,05,31,13,51,22.20
2019,05,31,13,52,22.20
2019,05,31,13,53,22.30
2019,05,31,13,54,22.40
2019,05,31,13,55,22.40
2019,05,31,13,56,22.40
2019,05,31,13,57,22.40
2019,05,31,13,58,22.40
2019,05,31,13,59,22.40
2019,05,31,14,00,22.30
2019,05,31,14,01,22.40
2019,05,31,14,02,22.30
2019,05,31,14,03,22.30
2019,05,31,14,04,22.30
2019,05,31,14,05,22.20
2019,05,31,14,06,22.20
2019,05,31,14,07,22.20
2019,05,31,14,08,22.20
2019,05,31,14,09,22.10
2019,05,31,14,10,22.10
2019,05,31,14,11,22.20
2019,05,31,14,12,22.30
2019,05,31,14,13,22.40
2019,05,31,14,14,22.50
2019,05,31,14,15,22.60
2019,05,31,14,16,22.70
2019,05,31,14,17,22.80
2019,05,31,14,18,22.90
2019,05,31,14,19,23.00
2019,05,31,14,20,23.00
2019,05,31,14,21,22.90
2019,05,31,14,22,22.70
2019,05,31,14,23,22.70
2019,05,31,14,24,22.70
2019,05,31,14,25,22.70
2019,05,31,14,26,22.80
2019,05,31,14,27,22.80
2019,05,31,14,28,22.80
2019,05,31,14,29,22.80
2019,05,31,14,30,22.90
2019,05,31,14,31,23.00
2019,05,31,14,32,23.00
2019,05,31,14,33,23.00
2019,05,31,14,34,23.00
2019,05,31,14,35,23.10
2019,05,31,14,36,23.20
2019,05,31,14,37,23.30
2019,05,31,14,38,23.40
2019,05,31,14,39,23.50
2019,05,31,14,40,23.60
2019,05,31,14,41,23.70
2019,05,31,14,42,23.70
2019,05,31,14,43,23.60
2019,05,31,14,44,23.60
2019,05,31,14,45,23.60
2019,05,31,14,46,23.60
2019,05,31,14,47,23.60
2019,05,31,14,48,23.50
2019,05,31,14,49,23.40
2019,05,31,14,50,23.40
2019,05,31,14,51,23.40
2019,05,31,14,52,23.40
2019,05,31,14,53,23.50
2019,05,31,14,54,23.50
2019,05,31,14,55,23.60
2019,05,31,14,56,23.60
2019,05,31,14,57,23.70
2019,05,31,14,58,23.80
2019,05,31,14,59,23.80
2019,05,31,15,00,23.70
2019,05,31,15,01,23.70
2019,05,31,15,02,23.70
2019,05,31,15,03,23.70
2019,05,31,15,04,23.80
2019,05,31,15,05,23.70
2019,05,31,15,06,23.70
2019,05,31,15,07,23.70
2019,05,31,15,08,23.60
2019,05,31,15,09,23.50
2019,05,31,15,10,23.50
2019,05,31,15,11,23.50
2019,05,31,15,12,23.60
2019,05,31,15,13,23.60
2019,05,31,15,14,23.50
2019,05,31,15,15,23.50
2019,05,31,15,16,23.40
2019,05,31,15,17,23.40
2019,05,31,15,18,23.40
2019,05,31,15,19,23.50
2019,05,31,15,20,23.50
2019,05,31,15,21,23.50
2019,05,31,15,22,23.50
2019,05,31,15,23,23.50
2019,05,31,15,24,23.60
2019,05,31,15,25,23.60
2019,05,31,15,26,23.60
2019,05,31,15,27,23.50
2019,05,31,15,28,23.40
2019,05,31,15,29,23.40
2019,05,31,15,30,23.40
2019,05,31,15,31,23.40
2019,05,31,15,32,23.40
2019,05,31,15,33,23.40
2019,05,31,15,34,23.50
2019,05,31,15,35,23.60
2019,05,31,15,36,23.60
2019,05,31,15,37,23.70
2019,05,31,15,38,23.70
2019,05,31,15,39,23.70
2019,05,31,15,40,23.70
2019,05,31,15,41,23.70
2019,05,31,15,42,23.70
2019,05,31,15,43,23.80
2019,05,31,15,44,23.90
2019,05,31,15,45,24.00
2019,05,31,15,46,24.10
2019,05,31,15,47,24.10
2019,05,31,15,48,24.20
2019,05,31,15,49,24.10
2019,05,31,15,50,24.00
2019,05,31,15,51,23.90
2019,05,31,15,52,23.80
2019,05,31,15,53,23.70
2019,05,31,15,54,23.70
2019,05,31,15,55,23.70
2019,05,31,15,56,23.80
2019,05,31,15,57,23.80
2019,05,31,15,58,23.90
2019,05,31,15,59,23.90
2019,05,31,16,00,23.90
2019,05,31,16,01,23.80
2019,05,31,16,02,23.80
2019,05,31,16,03,23.90
2019,05,31,16,04,23.80
2019,05,31,16,05,23.70
2019,05,31,16,06,23.70
2019,05,31,16,07,23.80
2019,05,31,16,08,23.80
2019,05,31,16,09,23.90
2019,05,31,16,10,23.80
2019,05,31,16,11,23.80
2019,05,31,16,12,23.80
2019,05,31,16,13,23.90
2019,05,31,16,14,23.80
2019,05,31,16,15,23.80
2019,05,31,16,16,23.70
2019,05,31,16,17,23.60
2019,05,31,16,18,23.70
2019,05,31,16,19,23.70
2019,05,31,16,20,23.80
2019,05,31,16,21,23.90
2019,05,31,16,22,23.90
2019,05,31,16,23,23.90
2019,05,31,16,24,24.00
2019,05,31,16,25,24.10
2019,05,31,16,26,24.20
2019,05,31,16,27,24.30
2019,05,31,16,28,24.40
2019,05,31,16,29,24.50
2019,05,31,16,30,24.50
2019,05,31,16,31,24.50
2019,05,31,16,32,24.50
2019,05,31,16,33,24.40
2019,05,31,16,34,24.40
2019,05,31,16,35,24.40
2019,05,31,16,36,24.40
2019,05,31,16,37,24.40
2019,05,31,16,38,24.40
2019,05,31,16,39,24.50
2019,05,31,16,40,24.40
2019,05,31,16,41,24.40
2019,05,31,16,42,24.40
2019,05,31,16,43,24.40
2019,05,31,16,44,24.40
2019,05,31,16,45,24.40
2019,05,31,16,46,24.40
2019,05,31,16,47,24.50
2019,05,31,16,48,24.60
2019,05,31,16,49,24.70
2019,05,31,16,50,24.80
2019,05,31,16,51,24.80
2019,05,31,16,52,24.80
2019,05,31,16,53,24.60
2019,05,31,16,54,24.50
2019,05,31,16,55,24.40
2019,05,31,16,56,24.30
2019,05,31,16,57,24.30
2019,05,31,16,58,24.30
2019,05,31,16,59,24.30
2019,05,31,17,00,24.30
2019,05,31,17,01,24.40
2019,05,31,17,02,24.40
2019,05,31,17,03,24.40
2019,05,31,17,04,24.40
2019,05,31,17,05,24.40
2019,05,31,17,06,24.40
2019,05,31,17,07,24.40
2019,05,31,17,08,24.30
2019,05,31,17,09,24.30
2019,05,31,17,10,24.30
2019,05,31,17,11,24.30
2019,05,31,17,12,24.30
2019,05,31,17,13,24.30
2019,05,31,17,14,24.30
2019,05,31,17,15,24.30
2019,05,31,17,16,24.10
2019,05,31,17,17,24.10
2019,05,31,17,18,24.10
2019,05,31,17,19,24.10